Location: Blankensee
(53.5126°N, 14.3055°E)
Time: 18:07:50
(UTC+00:00)

SeaSat 1 - Pass Details

Date: 08 August 2020
Orbit: 744 x 748 km, 108.0° (Epoch: 19 September)

Event Time Altitude Azimuth Distance (km) Brightness Sun altitude
Rises 02:30:17 0° 36° (NE) 3,204 7.7 -8.2°
Reaches altitude 10° 02:32:44 10° 45° (NE) 2,276 6.7 -7.9°
Maximum altitude 02:37:18 36° 112° (ESE) 1,171 3.8 -7.4°
Drops below altitude 10° 02:41:50 10° 179° (S) 2,262 4.6 -6.8°
Sets 02:44:15 0° 188° (S) 3,182 5.3 -6.6°
